Weather History for Yeovilton, United Kingdom

Change the Weather History Date:

Saturday, September 8, 2012

  Actual Average Record
Temperature  
Mean Temperature 60 °F -  
Max Temperature 72 °F 62 °F 75 °F (2004)
Min Temperature 48 °F 47 °F 44 °F (1997)
Degree Days  
Heating Degree Days 5    
Growing Degree Days 10 (Base 50)    
Moisture  
Dew Point 52 °F    
Average Humidity 79    
Maximum Humidity 100    
Minimum Humidity 44    
Precipitation  
Precipitation 0.00 in - - ()
Sea Level Pressure  
Sea Level Pressure 30.12 in    
Wind  
Wind Speed 3 mph ()    
Max Wind Speed 9 mph    
Max Gust Speed -    
Visibility 4.4 miles    
Events Fog , Rain    
Averages and records for this station are not official NWS values.
T = Trace of Precipitation, MM = Missing Value Source: Averaged Metar Reports

Daily Weather History Graph

Daily Weather History Graph

Search for Another Location

Airport:

Trip Planner

Search our weather history database for the weather conditions in past years. The results will help you decide how hot, cold, wet, or windy it might be!

Date:

Astronomy

Sep. 08, 2012 Rise Set
Actual Time 6:35 AM BST 7:39 PM BST
Civil Twilight 6:01 AM BST 8:13 PM BST
Nautical Twilight 5:20 AM BST 8:54 PM BST
Astronomical Twilight 4:36 AM BST 9:37 PM BST
Moon 11:23 PM BST (9/8) 2:54 PM BST (9/8)
Length of Visible Light 14h 11m
Length of Day
13h 04m
Waning Gibbous, 51% of the Moon is Illuminated
Sep 8
Waning Gibbous
Sep 8
Last Quarter
Sep 16
New
Sep 22
First Quarter
Sep 30
Full

Hourly Weather History & Observations

Time (BST) Temp. Dew Point Humidity Pressure Visibility Wind Dir Wind Speed Gust Speed Precip Events Conditions
12:50 AM 49 °F 49 °F 98% 30.25 in 0 mi SE 1.2 mph - - Fog Fog
12:50 AM 48.2 °F 48.2 °F 100% 30.24 in 0.1 mi SE 1.2 mph - N/A Fog Fog
1:50 AM 51.8 °F 51.8 °F 100% 30.24 in 0.1 mi West 1.2 mph - N/A Fog Fog
2:50 AM 51.8 °F 51.8 °F 100% 30.21 in 0.1 mi SW 2.3 mph - N/A Rain Light Rain Showers
3:50 AM 53 °F 53 °F 98% 30.23 in 0 mi WNW 1.2 mph - - Rain Light Rain Showers
3:50 AM 51.8 °F 51.8 °F 100% 30.21 in 0.1 mi WNW 1.2 mph - N/A Rain Light Rain Showers
5:50 AM 53.6 °F 53.6 °F 100% 30.18 in 0.2 mi ENE 2.3 mph - N/A Fog Fog
6:50 AM 53.6 °F 53.6 °F 100% 30.18 in 0.1 mi ESE 2.3 mph - N/A Fog Fog
7:50 AM 51.8 °F 51.8 °F 100% 30.18 in 0.2 mi SE 4.6 mph - N/A Fog Fog
8:50 AM 53.6 °F 53.6 °F 100% 30.18 in 0.2 mi SE 3.5 mph - N/A Fog Fog
9:50 AM 53 °F 53 °F 100% 30.19 in 0 mi SE 2.3 mph - - Fog Fog
9:50 AM 53.6 °F 53.6 °F 100% 30.18 in 0.2 mi SE 2.3 mph - N/A Fog Fog
10:50 AM 55.4 °F 55.4 °F 100% 30.15 in 6.2 mi East 2.3 mph - N/A   Mostly Cloudy
11:50 AM 62.6 °F 57.2 °F 82% 30.15 in 6.2 mi NNW 1.2 mph - N/A   Unknown
12:50 PM 67 °F 53 °F 52% 30.14 in 12 mi SSE 8.1 mph - -   Partly Cloudy
12:50 PM 68.0 °F 53.6 °F 60% 30.12 in - SSE 8.1 mph - N/A   Clear
1:50 PM 69.8 °F 48.2 °F 46% 30.12 in - SSE 9.2 mph - N/A   Clear
2:50 PM 71.6 °F 50.0 °F 46% 30.09 in - South 6.9 mph - N/A   Clear
3:50 PM 71 °F 54 °F 44% 30.09 in 16 mi South 5.8 mph - -   Clear
3:50 PM 69.8 °F 53.6 °F 56% 30.09 in - South 5.8 mph - N/A   Clear
4:50 PM 69.8 °F 48.2 °F 46% 30.06 in 6.2 mi South 5.8 mph - N/A   Unknown
5:50 PM 68.0 °F 50.0 °F 52% 30.04 in 6.2 mi SSE 4.6 mph - N/A   Unknown
6:50 PM 67 °F 53 °F 50% 30.04 in 13 mi ESE 3.5 mph - -  
6:50 PM 66.2 °F 53.6 °F 64% 30.04 in 6.2 mi ESE 3.5 mph - N/A   Unknown
7:50 PM 62.6 °F 51.8 °F 68% 30.01 in 3.1 mi East 1.2 mph - N/A   Haze
8:50 PM 57.2 °F 50.0 °F 77% 30.01 in 6.2 mi SE 4.6 mph - N/A   Unknown
9:50 PM 56 °F 48 °F 68% 30.02 in 12 mi ESE 4.6 mph - -  
9:50 PM 55.4 °F 48.2 °F 77% 30.01 in 6.2 mi ESE 4.6 mph - N/A   Unknown
10:50 PM 51.8 °F 48.2 °F 88% 30.01 in 6.2 mi Calm Calm - N/A   Unknown
11:50 PM 50.0 °F 48.2 °F 94% 29.98 in 6.2 mi East 1.2 mph - N/A   Unknown